Regional Weather Roundup
Issued by NWS

Home | Current Version | Previous Version | Text Only | Print | Product List | Glossary On
Versions: 1 2 3 4 5 6 7 8 9 10 11 12 13 14 15 16 17 18 19 20 21 22 23 24 25 26 27 28 29 30 31 32 33 34 35 36 37 38 39 40 41 42 43 44 45 46 47 48 49 50
000
ASUS45 KABQ 081001
RWRNM
NEW MEXICO REGIONAL WEATHER ROUNDUP
NATIONAL WEATHER SERVICE ALBUQUERQUE NM
300 AM MST THU DEC 08 2016

NOTE: "FAIR" MEANS FEW OR NO CLOUDS BELOW 12,000 FEET AGL WITH NO
       SIGNIFICANT WEATHER OR OBSTRUCTIONS TO VISION.

      THIS PRODUCT IS RELEASED AS TWO VERSIONS.  ONE VERSION NEAR
      THE TOP OF THE HOUR CONTAINING PRELIMINARY DATA FROM ALBUQUERQUE
      AND OTHER STATIONS.  A FINAL VERSION WITH ADDITIONAL DATA IS
      ISSUED ABOUT 10 MINUTES AFTER THE HOUR.

NMZ501-503-504-510>518-081100-
NORTHWEST PLATEAU/NORTHCENTRAL MOUNTAINS

CITY           SKY/WX    TMP DP  RH WIND       PRES   REMARKS
FARMINGTON     FAIR      16   5  62 E7        30.26F WCI   6
LOS ALAMOS     FAIR      16  10  78 S10       30.25S WCI   3
SANTA FE       CLOUDY    15   8  73 S16       30.29R WCI  -1
TAOS           FAIR       7  -4  61 N6        30.25R WCI  -3
ANGEL FIRE     FAIR       3  -1  85 CALM      30.21R

$$
NMZ402-403-502-505>509-081100-
WESTCENTRAL MOUNTAINS/SOUTHWEST MOUNTAINS

CITY           SKY/WX    TMP DP  RH WIND       PRES   REMARKS
GALLUP         FAIR      20  10  65 CALM      30.24R
GRANTS         CLOUDY    21  15  79 NW3       30.26R
SILVER CITY    FAIR      34  29  82 N7        30.19R WCI  28

$$
NMZ407-409-411-412-081100-
SOUTHERN DESERTS

CITY           SKY/WX    TMP DP  RH WIND       PRES   REMARKS
DEMING         FAIR      43  26  51 NE13      30.18R
LAS CRUCES     MOCLDY    43  32  64 SE8       30.20S
HOLLOMAN AFB   FAIR      34  18  51 NW5       30.28R WCI  30
T OR C         FAIR      32  15  49 N18       30.22R WCI  20

$$
NMZ519>523-081100-
CENTRAL VALLEYS/CENTRAL HIGHLANDS

CITY           SKY/WX    TMP DP  RH WIND       PRES   REMARKS
ALBUQUERQUE    MOCLDY    26  13  57 E23       30.27R WCI  11
DOUBLE EAGLE   CLOUDY    22  11  63 N12G17    30.27R WCI  11
MORIARTY ARPT  CLOUDY    15  10  78 SE5       30.35S WCI   8
CLINES CORNERS FLURRIES  10   7  87 E15       30.30R WCI  -7
BELEN          CLOUDY    27  14  59 S9        30.28R WCI  17
SOCORRO        NOT AVBL

$$
NMZ524>526-539-540-081100-
SOUTHCENTRAL MOUNTAINS

CITY           SKY/WX    TMP DP  RH WIND       PRES   REMARKS
RUIDOSO        CLOUDY    16  14  93 SE10      30.32R FOG     WCI   3

$$
NMZ527>531-081100-
NORTHEAST HIGHLANDS/NORTHEAST PLAINS

CITY           SKY/WX    TMP DP  RH WIND       PRES   REMARKS
LAS VEGAS      FAIR       7   5  91 E3        30.31R
RATON          FAIR       6   2  83 CALM      30.33R
CLAYTON        CLOUDY    12  10  92 NE6       30.43F WCI   3

$$
NMZ532>537-081100-
EASTCENTRAL PLAINS

CITY           SKY/WX    TMP DP  RH WIND       PRES   REMARKS
TUCUMCARI      CLOUDY    21  13  71 E9        30.48R WCI  11
CANNON AFB     CLOUDY    21  19  93 NE18      30.44R WCI   6
CLOVIS AIRPORT CLOUDY    21  14  73 NE16      30.45R WCI   7

$$
NMZ028-029-538-081100-
SOUTHEAST PLAINS

CITY           SKY/WX    TMP DP  RH WIND       PRES   REMARKS
ROSWELL        CLOUDY    29  19  66 NE13      30.45R WCI  19
ARTESIA        MIX PCPN  28  30 100 NE14G23   30.46R WCI  17
CARLSBAD       NOT AVBL


$$




USA.gov is the U.S. government's official web portal to all federal, state and local government web resources and services.